Consulta los datos en tiempo real de la estación municipal de St. Hilari Sacalm
| Hora UTC | 06:10 |
|---|---|
| Temperatura | 18.0 ºC |
| Humedad | 94.6 % |
| Presión | 1022.4 hPa |
| Pluja | 0.0 mm |
| Velocidad viento | 0.0 km/h |
| Dirección viento | NNE |
| Radiación solar | 32.8 W/m² |
| Temperatura (ºC) | Humedad (%) | Presión (hPa) | Velocidad viento (km/h) | Precipitación (mm) | Radiación solar (W/m²) | |||||||||||||
|---|---|---|---|---|---|---|---|---|---|---|---|---|---|---|---|---|---|---|
| Hora UTC | Aire | Humedad | Presión | Vel. | Dir. | Vel. Max | Dir. | Intent. máx 5 min. | Rad. Sol. | |||||||||
| 00:05 | 18.6 | 94.2 | 1023.3 | 0.0 | NNE | 0.0 | ENE | 0.0 | 0.1 | |||||||||
| 00:10 | 18.4 | 94.4 | 1023.3 | 0.0 | NNE | 0.0 | ENE | 0.0 | 0.1 | |||||||||
| 00:15 | 18.4 | 94.9 | 1023.2 | 0.0 | NNE | 0.0 | ENE | 0.0 | 0.1 | |||||||||
| 00:20 | 18.5 | 95.2 | 1023.2 | 0.0 | NNE | 0.0 | ENE | 0.0 | 0.1 | |||||||||
| 00:25 | 18.5 | 95.2 | 1023.2 | 0.0 | NNE | 0.0 | ENE | 0.0 | 0.1 | |||||||||
| 00:30 | 18.4 | 95.5 | 1023.2 | 0.0 | NNE | 0.0 | ENE | 0.0 | 0.1 | |||||||||
| 00:35 | 18.4 | 95.6 | 1023.1 | 0.0 | NNE | 0.0 | ENE | 0.0 | 0.1 | |||||||||
| 00:40 | 18.3 | 95.6 | 1023.2 | 0.0 | NNE | 0.0 | ENE | 0.0 | 0.1 | |||||||||
| 00:45 | 18.3 | 95.6 | 1023.2 | 0.0 | NNE | 0.0 | ENE | 0.0 | 0.1 | |||||||||
| 00:50 | 18.4 | 95.9 | 1023.2 | 0.0 | NNE | 0.0 | ENE | 0.0 | 0.1 | |||||||||
| 00:55 | 18.4 | 95.8 | 1023.1 | 0.0 | NNE | 0.0 | ENE | 0.0 | 0.1 | |||||||||
| 01:00 | 18.3 | 95.7 | 1023.1 | 0.0 | NNE | 0.0 | ENE | 0.0 | 0.1 | |||||||||
| 01:05 | 18.3 | 95.8 | 1023.1 | 0.0 | NNE | 0.0 | ENE | 0.0 | 0.1 | |||||||||
| 01:10 | 18.4 | 95.9 | 1023.1 | 0.0 | NNE | 0.0 | SE | 0.0 | 0.1 | |||||||||
| 01:15 | 18.4 | 95.9 | 1023.1 | 0.0 | NNE | 0.0 | SSE | 0.0 | 0.1 | |||||||||
| 01:20 | 18.4 | 95.8 | 1023.1 | 0.0 | NNE | 0.0 | SSE | 0.0 | 0.1 | |||||||||
| 01:25 | 18.4 | 95.8 | 1023.1 | 0.0 | NNE | 0.0 | SSE | 0.0 | 0.1 | |||||||||
| 01:30 | 18.4 | 95.7 | 1023.1 | 0.0 | NNE | 0.0 | SSE | 0.0 | 0.1 | |||||||||
| 01:35 | 18.4 | 95.5 | 1023.1 | 0.0 | NNE | 0.0 | SSE | 0.0 | 0.1 | |||||||||
| 01:40 | 18.4 | 95.5 | 1023.1 | 0.0 | NNE | 0.0 | SSE | 0.0 | 0.1 | |||||||||
| 01:45 | 18.4 | 95.5 | 1023.1 | 0.0 | NNE | 0.0 | SSE | 0.0 | 0.1 | |||||||||
| 01:50 | 18.5 | 95.6 | 1023.1 | 0.0 | NNE | 0.0 | SSE | 0.0 | 0.1 | |||||||||
| 01:55 | 18.4 | 95.3 | 1023.1 | 0.0 | NNE | 0.0 | SSE | 0.0 | 0.1 | |||||||||
| 02:00 | 18.3 | 95.1 | 1023.0 | 0.0 | NNE | 0.0 | SSE | 0.0 | 0.1 | |||||||||
| 02:05 | 18.4 | 95.0 | 1023.0 | 0.0 | NNE | 0.0 | W | 0.0 | 0.1 | |||||||||
| 02:10 | 18.3 | 95.1 | 1023.0 | 0.0 | NNE | 0.0 | W | 0.0 | 0.1 | |||||||||
| 02:15 | 18.5 | 95.3 | 1023.0 | 0.0 | NNE | 0.0 | S | 0.0 | 0.1 | |||||||||
| 02:20 | 18.6 | 95.1 | 1023.0 | 0.0 | NNE | 0.0 | S | 0.0 | 0.2 | |||||||||
| 02:25 | 18.7 | 94.7 | 1022.9 | 0.0 | NNE | 0.0 | SSW | 0.0 | 0.1 | |||||||||
| 02:30 | 18.7 | 94.5 | 1022.9 | 0.0 | NNE | 0.0 | S | 0.0 | 0.1 | |||||||||
| 02:35 | 18.7 | 94.3 | 1022.9 | 0.0 | NNE | 0.0 | S | 0.0 | 0.1 | |||||||||
| 02:40 | 18.6 | 94.0 | 1022.8 | 0.0 | NNE | 0.0 | S | 0.0 | 0.1 | |||||||||
| 02:45 | 18.5 | 93.9 | 1022.7 | 0.0 | NNE | 0.0 | WSW | 0.0 | 0.1 | |||||||||
| 02:50 | 18.4 | 93.8 | 1022.7 | 0.0 | NNE | 0.0 | WNW | 0.0 | 0.1 | |||||||||
| 02:55 | 18.4 | 94.2 | 1022.6 | 0.0 | NNE | 0.0 | WNW | 0.0 | 0.1 | |||||||||
| 03:00 | 18.3 | 94.2 | 1022.6 | 1.6 | WNW | 14.2 | W | 0.0 | 0.1 | |||||||||
| 03:05 | 18.3 | 94.4 | 1022.6 | 2.6 | WNW | 11.5 | NW | 0.0 | 0.1 | |||||||||
| 03:10 | 18.4 | 94.5 | 1022.6 | 3.3 | WNW | 11.5 | WNW | 0.0 | 0.1 | |||||||||
| 03:15 | 18.4 | 94.4 | 1022.5 | 3.4 | NW | 14.2 | W | 0.0 | 0.2 | |||||||||
| 03:20 | 18.3 | 94.3 | 1022.4 | 1.6 | NNW | 8.8 | WNW | 0.0 | 0.1 | |||||||||
| 03:25 | 18.3 | 94.3 | 1022.4 | 0.0 | NNE | 0.0 | NW | 0.0 | 0.1 | |||||||||
| 03:30 | 18.2 | 94.2 | 1022.3 | 1.8 | WNW | 11.5 | NW | 0.0 | 0.1 | |||||||||
| 03:35 | 18.2 | 94.2 | 1022.3 | 2.2 | NW | 14.2 | NNW | 0.0 | 0.1 | |||||||||
| 03:40 | 18.3 | 94.1 | 1022.3 | 3.1 | NW | 14.2 | NW | 0.0 | 0.1 | |||||||||
| 03:45 | 18.3 | 93.8 | 1022.2 | 1.4 | NW | 11.5 | NNW | 0.0 | 0.1 | |||||||||
| 03:50 | 18.2 | 93.7 | 1022.2 | 0.4 | WNW | 8.8 | WNW | 0.0 | 0.2 | |||||||||
| 03:55 | 18.2 | 93.8 | 1022.2 | 0.4 | WNW | 8.8 | NW | 0.0 | 0.1 | |||||||||
| 04:00 | 18.1 | 93.8 | 1022.2 | 0.0 | NNE | 0.0 | WSW | 0.0 | 0.1 | |||||||||
| 04:05 | 18.1 | 93.9 | 1022.3 | 0.0 | NNE | 0.0 | NW | 0.0 | 0.1 | |||||||||
| 04:10 | 18.0 | 93.9 | 1022.3 | 0.0 | NNE | 0.0 | SW | 0.0 | 0.1 | |||||||||
| 04:15 | 18.0 | 94.1 | 1022.2 | 1.5 | W | 8.8 | W | 0.0 | 0.1 | |||||||||
| 04:20 | 18.0 | 94.1 | 1022.2 | 1.4 | W | 11.5 | W | 0.0 | 0.1 | |||||||||
| 04:25 | 18.0 | 94.1 | 1022.2 | 0.0 | NW | 3.4 | NW | 0.0 | 0.1 | |||||||||
| 04:30 | 18.0 | 93.9 | 1022.1 | 0.0 | NNE | 0.0 | W | 0.0 | 0.1 | |||||||||
| 04:35 | 18.0 | 94.0 | 1022.1 | 0.0 | NNE | 0.0 | WNW | 0.0 | 0.1 | |||||||||
| 04:40 | 18.0 | 94.1 | 1022.1 | 0.1 | WNW | 6.1 | WNW | 0.0 | 0.1 | |||||||||
| 04:45 | 18.0 | 94.1 | 1022.1 | 0.0 | NNE | 0.0 | SW | 0.0 | 0.2 | |||||||||
| 04:50 | 17.9 | 93.9 | 1022.1 | 0.0 | NNE | 0.0 | W | 0.0 | 0.2 | |||||||||
| 04:55 | 17.8 | 93.9 | 1022.1 | 0.0 | NNE | 0.0 | W | 0.0 | 0.2 | |||||||||
| 05:00 | 17.7 | 94.0 | 1022.1 | 0.0 | NNE | 0.0 | WSW | 0.0 | 0.4 | |||||||||
| 05:05 | 17.6 | 94.1 | 1022.1 | 0.7 | WSW | 11.5 | WSW | 0.0 | 0.8 | |||||||||
| 05:10 | 17.6 | 94.4 | 1022.1 | 0.0 | SW | 3.4 | SW | 0.0 | 1.7 | |||||||||
| 05:15 | 17.7 | 94.5 | 1022.1 | 0.9 | WNW | 11.5 | SW | 0.0 | 2.9 | |||||||||
| 05:20 | 17.7 | 94.6 | 1022.2 | 1.7 | W | 8.8 | NW | 0.0 | 4.4 | |||||||||
| 05:25 | 17.7 | 94.5 | 1022.2 | 0.0 | NNE | 0.0 | SW | 0.0 | 6.5 | |||||||||
| 05:30 | 17.7 | 94.6 | 1022.2 | 0.0 | NNE | 0.0 | WSW | 0.0 | 9.2 | |||||||||
| 05:35 | 17.7 | 94.7 | 1022.3 | 0.0 | NNE | 0.0 | W | 0.0 | 12.1 | |||||||||
| 05:40 | 17.6 | 94.7 | 1022.3 | 0.0 | NNE | 0.0 | W | 0.0 | 13.8 | |||||||||
| 05:45 | 17.7 | 94.9 | 1022.3 | 0.0 | NNE | 0.0 | WNW | 0.0 | 16.8 | |||||||||
| 05:50 | 17.8 | 95.0 | 1022.4 | 0.0 | NNE | 0.0 | WNW | 0.0 | 21.6 | |||||||||
| 05:55 | 17.9 | 94.9 | 1022.4 | 0.0 | NNE | 0.0 | NW | 0.0 | 22.0 | |||||||||
| 06:00 | 17.9 | 94.8 | 1022.4 | 0.0 | NNE | 0.0 | WNW | 0.0 | 25.0 | |||||||||
| 06:05 | 17.9 | 94.7 | 1022.4 | 0.0 | NNE | 0.0 | NW | 0.0 | 31.0 | |||||||||
| 06:10 | 18.0 | 94.6 | 1022.4 | 0.0 | NNE | 0.0 | WNW | 0.0 | 32.8 | |||||||||
| Máxima | 18.7 | 95.9 | 1023.3 | 3.4 | NW | 14.2 | NW | 0.0 | 32.8 | |||||||||
| Mínima | 17.6 | 93.7 | 1022.1 | |||||||||||||||
| Total | 0.0 | |||||||||||||||||